INNOSAT-2

Last updated on Sun Dec 11 2022 00:03:45 GMT+0000 (Coordinated Universal Time)

1 43738U 18096V 22343.08104257 .10091013 24890-5 49773-3 0 9996 2 43738 97.3404 79.6751 0009825 290.2937 171.3040 16.42045585225820

Satellite not in orbit

INNOSAT-2